sat.trackr.live / text

‹ back to catalog

STARLINK-31057

NORAD 58545 · 2023-192Q

PAYLOAD ACTIVE UNKNOWN

§ Identity

Operator
Country
US
Launch date
2023-12-08
Launch site
AFWTR
Launch vehicle
Mass (kg)
RCS (m²)

Purposes: comms

External: N2YO · Heavens-Above · Gunter

§ Orbital elements

Epoch: 2026-09-20T07:44:16.328544Z

Period
93.85 min
Inclination
53.1579°
Eccentricity
0.0001696
Mean motion
15.34391663 rev/d
Perigee alt
461.6 km
Apogee alt
463.9 km
Semi-major
6,840.9 km
B*
5.1803e-5
RAAN
234.4995°
Arg perigee
81.9030°
Mean anomaly
278.2165°
Rev number
15,584

§ Raw data

STARLINK-310571 58545U 23192Q   26263.32241121  .00001374  00000+0  51803-4 0  99942 58545  53.1579 234.4995 0001696  81.9030 278.2165 15.34391663155843

JSON: /api/v1/satellites/58545 · /tle

For live sub-satellite position, see the globe view (requires WebGL).

§ Visibility from observer

Set your observer location to see the next 7 days of passes ≥ 10°. The values pass through the URL so the page stays shareable.

No JS? Fill the form by hand. The geolocation button needs JavaScript.